Location: *
(43.9900°N, 3.4811°E)
Time: 05:55:51
(UTC+00:00)

NOSS 3-1 (A) - Pass Details

Date: 25 August 2019
Orbit: 774 x 1439 km, 63.4° (Epoch: 03 September)

Event Time Altitude Azimuth Distance (km) Brightness Sun altitude
Rises 21:01:07 0° 323° (NW) 3,946 8.1 -23.5°
Reaches altitude 10° 21:03:41 10° 326° (NW) 3,075 7.1 -23.9°
Maximum altitude 21:11:12 70° 50° (NE) 1,369 4.1 -24.8°
Enters shadow 21:14:04 44° 118° (ESE) 1,770 4.3 -25.2°
